Location: Clermont
(50.2608°N, 4.3172°E)
Time: 06:22:21
(UTC+00:00)

COSMOS 2428 - Pass Details

Date: 13 August 2020
Orbit: 844 x 859 km, 70.9° (Epoch: 23 September)

Event Time Altitude Azimuth Distance (km) Brightness Sun altitude
Rises 21:10:32 0° 332° (NNW) 3,434 7.5 -16.8°
Reaches altitude 10° 21:13:20 10° 344° (NNW) 2,498 6.2 -17.1°
Maximum altitude 21:18:19 29° 44° (NE) 1,515 4.1 -17.6°
Enters shadow 21:21:50 17° 94° (E) 2,068 4.3 -18.0°
